Home   Weather   Fairfield Estates   Past weeks
Flag for USA

Past Weather in Fairfield Estates, Tennessee, USA — Yesterday and Last 2 Weeks

Now
42 °F

Overcast.


Feels Like: 39 °F
Forecast: 55 / 40 °F
Wind: 5 mph from Northeast

Location: Smyrna Airport

Current Time: Dec 15, 2019 at 9:31:57 am

Latest Report: Dec 15, 2019 at 8:56 am


Visibility: 7 mi

Pressure: 30.16 "Hg

Humidity: 85%

Dew Point: 38 °F

Location of Fairfield EstatesLocation

Past Weather in Fairfield Estates — Graph

°F

Fairfield Estates Temperature Yesterday

Maximum temperature yesterday: 50 °F (at 12:27 pm)
Minimum temperature yesterday: 44 °F (at 6:56 am)
Average temperature yesterday: 46 °F

High & Low Weather Summary for the Past Weeks

 TemperatureHumidityPressure
High66 °F (Dec 9, 3:20 pm)100% (Nov 30, 1:32 pm)30.62 "Hg (Nov 30, 1:32 pm)
Low21 °F (Dec 11, 4:56 am)31% (Dec 5, 1:56 pm)29.57 "Hg (Nov 30, 11:03 pm)
Average45 °F77%30.07 "Hg
* Reported Nov 30 8:56 am — Dec 15 8:05 am, Fairfield Estates. Weather by CustomWeather, © 2019

Note: Actual official high and low records may vary slightly from our data, if they occured in-between our weather recording intervals... More about our weather records

Fairfield Estates Weather History for the Previous 24 Hours

Scroll right to see more
 ConditionsComfort  
Time TempWeatherWind HumidityBarometerVisibility
8:05 am
Sun, Dec 15
41 °FLow clouds.5 mph87%30.12 "Hg7 mi
7:56 am41 °FFog.7 mph86%30.14 "Hg6 mi
6:56 am42 °FOvercast.7 mph85%30.14 "Hg7 mi
6:39 am43 °FMostly cloudy.9 mph81%30.10 "Hg10 mi
5:56 am42 °FOvercast.7 mph85%30.11 "Hg10 mi
4:56 am41 °FMostly cloudy.No wind89%30.09 "Hg10 mi
4:30 am41 °FPartly cloudy.No wind87%30.06 "Hg10 mi
3:56 am41 °FPassing clouds.5 mph93%30.08 "Hg10 mi
2:56 am41 °FOvercast.3 mph89%30.06 "Hg10 mi
2:17 am43 °FMostly cloudy.5 mph87%30.02 "Hg10 mi
1:56 am44 °FOvercast.3 mph82%30.03 "Hg10 mi
1:09 am45 °FOvercast.6 mph81%29.99 "Hg10 mi
12:56 am44 °FOvercast.7 mph85%30.02 "Hg10 mi
11:56 pm
Sat, Dec 14
45 °FMostly cloudy.5 mph82%30.00 "Hg10 mi
10:56 pm44 °FOvercast.5 mph85%29.98 "Hg10 mi
9:56 pm45 °FOvercast.7 mph86%29.98 "Hg10 mi
8:56 pm46 °FOvercast.6 mph83%29.95 "Hg10 mi
7:56 pm45 °FOvercast.No wind82%29.93 "Hg10 mi
7:43 pm46 °FMostly cloudy.No wind76%29.90 "Hg10 mi
6:56 pm45 °FMostly cloudy.No wind82%29.91 "Hg10 mi
5:56 pm45 °FOvercast.3 mph82%29.90 "Hg10 mi
4:56 pm48 °FOvercast.3 mph68%29.87 "Hg10 mi
3:56 pm49 °FPassing clouds.3 mph64%29.85 "Hg10 mi
2:56 pm50 °FPartly sunny.5 mph61%29.84 "Hg10 mi
1:56 pm50 °FOvercast.6 mph61%29.83 "Hg10 mi
12:56 pm49 °FOvercast.9 mph66%29.82 "Hg10 mi
12:27 pm50 °FMore clouds than sun.13 mph67%29.80 "Hg10 mi
10:56 am45 °FMostly cloudy.6 mph82%29.83 "Hg10 mi
10:17 am45 °FPartly sunny.5 mph81%29.80 "Hg10 mi
9:56 am45 °FPartly sunny.7 mph82%29.83 "Hg10 mi
9:27 am45 °FCloudy.13 mph81%29.82 "Hg10 mi
Weather by CustomWeather, © 2019

See weather overview

Advertising